Year,Month,Day,Hour,Minute,Value (Times are PST for temperature in C)
2020,04,16,07,43,25.50
2020,04,16,07,44,25.40
2020,04,16,07,45,25.40
2020,04,16,07,46,25.40
2020,04,16,07,47,25.40
2020,04,16,07,48,25.40
2020,04,16,07,49,25.40
2020,04,16,07,50,25.40
2020,04,16,07,51,25.40
2020,04,16,07,52,25.40
2020,04,16,07,53,25.40
2020,04,16,10,59,36.50
2020,04,16,11,00,36.60
2020,04,16,11,01,36.60
2020,04,16,11,02,36.60
2020,04,16,11,03,36.60
2020,04,16,11,04,36.60
2020,04,16,11,05,36.60
2020,04,16,11,06,36.60
2020,04,16,11,07,36.60
2020,04,16,11,08,36.80
2020,04,16,11,09,37.30
2020,04,16,11,10,37.30
2020,04,16,11,11,37.30
2020,04,16,11,12,37.30
2020,04,16,11,13,37.30
2020,04,16,11,14,37.30
2020,04,16,11,15,37.30
2020,04,16,11,16,38.10
2020,04,16,11,17,38.30
2020,04,16,11,18,38.50
2020,04,16,11,19,38.70
2020,04,16,11,20,38.90
2020,04,16,11,21,39.00
2020,04,16,11,22,39.20
2020,04,16,11,23,39.30
2020,04,16,11,24,39.50
2020,04,16,11,25,39.60
2020,04,16,11,26,39.70
2020,04,16,11,27,39.80
2020,04,16,11,28,40.00
2020,04,16,11,29,40.10
2020,04,16,11,30,40.20
2020,04,16,11,31,40.30
2020,04,16,11,32,40.50
2020,04,16,11,33,40.60
2020,04,16,11,34,40.60
2020,04,16,11,35,40.70
2020,04,16,11,36,40.70
2020,04,16,11,37,40.80
2020,04,16,11,38,40.80
2020,04,16,11,39,40.80
2020,04,16,11,40,40.80
2020,04,16,11,41,40.80
2020,04,16,11,42,40.80
2020,04,16,11,43,40.70
2020,04,16,11,44,40.70
2020,04,16,11,45,40.80
2020,04,16,11,46,40.80
2020,04,16,11,47,40.80
2020,04,16,11,48,40.80
2020,04,16,11,49,40.90
2020,04,16,11,50,40.90
2020,04,16,11,51,40.90
2020,04,16,11,52,40.90
2020,04,16,11,53,41.00
2020,04,16,11,54,41.10
2020,04,16,11,55,41.20
2020,04,16,11,56,41.30
2020,04,16,11,57,41.50
2020,04,16,11,58,41.60
2020,04,16,11,59,41.70
2020,04,16,12,00,41.70
2020,04,16,12,01,41.70
2020,04,16,12,02,41.80
2020,04,16,12,03,41.80
2020,04,16,12,04,41.80
2020,04,16,12,05,41.90
2020,04,16,12,06,41.90
2020,04,16,12,07,41.90
2020,04,16,12,08,42.00
2020,04,16,12,09,42.00
2020,04,16,12,10,42.10
2020,04,16,12,11,42.10
2020,04,16,12,12,42.20
2020,04,16,12,13,42.20
2020,04,16,12,14,42.20
2020,04,16,12,15,42.20
2020,04,16,12,16,42.20
2020,04,16,12,17,42.30
2020,04,16,12,18,42.30
2020,04,16,12,19,42.40
2020,04,16,12,20,42.50
2020,04,16,12,21,42.50
2020,04,16,12,22,42.50
2020,04,16,12,23,42.60
2020,04,16,12,24,42.60
2020,04,16,12,25,42.60
2020,04,16,12,26,42.70
2020,04,16,12,27,42.70
2020,04,16,12,28,42.80
2020,04,16,12,29,42.90
2020,04,16,12,30,42.90
2020,04,16,12,31,43.00
2020,04,16,12,32,43.10
2020,04,16,12,33,43.10
2020,04,16,12,34,43.20
2020,04,16,12,35,43.20
2020,04,16,12,36,43.20
2020,04,16,12,37,43.30
2020,04,16,12,38,43.40
2020,04,16,12,39,43.50
2020,04,16,12,40,43.60
2020,04,16,12,41,43.70
2020,04,16,12,42,43.70
2020,04,16,12,43,43.60
2020,04,16,12,44,43.60
2020,04,16,12,45,43.60
2020,04,16,12,46,43.60
2020,04,16,12,47,43.60
2020,04,16,12,48,43.60
2020,04,16,12,49,43.60
2020,04,16,12,50,43.60
2020,04,16,12,51,43.70
2020,04,16,12,52,43.80
2020,04,16,12,53,43.90
2020,04,16,12,54,43.90
2020,04,16,12,55,43.90
2020,04,16,12,56,43.80
2020,04,16,12,57,43.80
2020,04,16,12,58,43.90
2020,04,16,12,59,43.90
2020,04,16,13,00,43.90
2020,04,16,13,01,43.90
2020,04,16,13,02,44.00
2020,04,16,13,03,44.00
2020,04,16,13,04,44.10
2020,04,16,13,05,44.10
2020,04,16,13,06,44.10
2020,04,16,13,07,44.10
2020,04,16,13,08,44.10
2020,04,16,13,09,44.10
2020,04,16,13,10,44.10
2020,04,16,13,11,44.10
2020,04,16,13,12,44.10
2020,04,16,13,13,44.20
2020,04,16,13,14,44.20
2020,04,16,13,15,44.20
2020,04,16,13,16,44.30
2020,04,16,13,17,44.30
2020,04,16,13,18,44.40
2020,04,16,13,19,44.40
2020,04,16,13,20,44.40
2020,04,16,13,21,44.40
2020,04,16,13,22,44.40
2020,04,16,13,23,44.40
2020,04,16,13,24,44.40
2020,04,16,13,25,44.40
2020,04,16,13,26,44.40
2020,04,16,13,27,44.40
2020,04,16,13,28,44.50
2020,04,16,13,29,44.40
2020,04,16,13,30,44.40
2020,04,16,13,31,44.40
2020,04,16,13,32,44.40
2020,04,16,13,33,44.40
2020,04,16,13,34,44.40
2020,04,16,13,35,44.40
2020,04,16,13,36,44.50
2020,04,16,13,37,44.50
2020,04,16,13,38,44.60
2020,04,16,13,39,44.60
2020,04,16,13,40,44.70
2020,04,16,13,41,44.70
2020,04,16,13,42,44.80
2020,04,16,13,43,44.80
2020,04,16,13,44,44.90
2020,04,16,13,45,44.90
2020,04,16,13,46,44.90
2020,04,16,13,52,44.90
2020,04,16,13,53,44.90
2020,04,16,13,54,44.90
2020,04,16,13,55,44.90
2020,04,16,13,56,44.90
2020,04,16,13,57,44.90
2020,04,16,14,19,44.90
2020,04,16,14,20,44.80
2020,04,16,14,21,44.80
2020,04,16,14,22,44.70
2020,04,16,14,23,44.60
2020,04,16,14,24,44.60
2020,04,16,14,25,44.60
2020,04,16,14,26,44.70
2020,04,16,14,27,44.80
2020,04,16,14,28,44.90
2020,04,16,14,29,44.90
2020,04,16,14,30,44.90
2020,04,16,14,32,44.90
2020,04,16,14,33,44.90
2020,04,16,14,36,44.90
2020,04,16,14,37,44.90
2020,04,16,14,39,44.90
2020,04,16,14,40,44.90
2020,04,16,15,48,44.90
2020,04,16,15,49,44.90
2020,04,16,15,50,44.80
2020,04,16,15,51,44.80
2020,04,16,15,52,44.70
2020,04,16,15,53,44.70
2020,04,16,15,54,44.60
2020,04,16,15,55,44.50
2020,04,16,15,56,44.40
2020,04,16,15,57,44.30
2020,04,16,15,58,44.20
2020,04,16,15,59,44.20
2020,04,16,16,00,44.10
2020,04,16,16,01,44.10
2020,04,16,16,02,44.10
2020,04,16,16,03,44.10
2020,04,16,16,04,44.10
2020,04,16,16,05,44.10
2020,04,16,16,06,44.20
2020,04,16,16,07,44.10
2020,04,16,16,08,44.10
2020,04,16,16,09,44.00
2020,04,16,16,10,43.90
2020,04,16,16,11,43.90
2020,04,16,16,12,43.80
2020,04,16,16,13,43.70
2020,04,16,16,14,43.70
2020,04,16,16,15,43.70
2020,04,16,16,16,43.60
2020,04,16,16,17,43.60
2020,04,16,16,18,43.60
2020,04,16,16,19,43.60
2020,04,16,16,20,43.60
2020,04,16,16,21,43.70
2020,04,16,16,22,43.70
2020,04,16,16,23,43.70
2020,04,16,16,24,43.70
2020,04,16,16,25,43.70
2020,04,16,16,26,43.60
2020,04,16,16,27,43.50
2020,04,16,16,28,43.40
2020,04,16,16,29,43.40
2020,04,16,16,30,43.30
2020,04,16,16,31,43.30
2020,04,16,16,32,43.20
2020,04,16,16,33,43.10
2020,04,16,16,34,43.10
2020,04,16,16,35,43.00
2020,04,16,16,36,42.90
2020,04,16,16,37,42.90
2020,04,16,16,38,42.90
2020,04,16,16,39,42.90
2020,04,16,16,40,42.90
2020,04,16,16,41,42.90
2020,04,16,16,42,42.80
2020,04,16,16,43,42.70
2020,04,16,16,44,42.70
2020,04,16,16,45,42.60
2020,04,16,16,46,42.60
2020,04,16,16,47,42.60
2020,04,16,16,48,42.70
2020,04,16,16,49,42.60
2020,04,16,16,50,42.60
2020,04,16,16,51,42.60
2020,04,16,16,52,42.60
2020,04,16,16,53,42.60
2020,04,16,16,54,42.60
2020,04,16,16,55,42.50
2020,04,16,16,56,42.50
2020,04,16,16,57,42.40
2020,04,16,16,58,42.30
2020,04,16,16,59,42.30
2020,04,16,17,00,42.30
2020,04,16,17,01,42.40
2020,04,16,17,02,42.50
2020,04,16,17,03,42.60
2020,04,16,17,04,42.70
2020,04,16,17,05,42.70
2020,04,16,17,06,42.80
2020,04,16,17,07,42.80
2020,04,16,17,08,42.60
2020,04,16,17,09,42.30
2020,04,16,17,10,42.00
2020,04,16,17,11,41.70
2020,04,16,17,12,41.40
2020,04,16,17,13,41.20
2020,04,16,17,14,41.00
2020,04,16,17,15,40.90
2020,04,16,17,16,40.80
2020,04,16,17,17,40.80
2020,04,16,17,18,40.70
2020,04,16,17,19,40.70
2020,04,16,17,20,40.60
2020,04,16,17,21,40.60
2020,04,16,17,22,40.50
2020,04,16,17,23,40.50
2020,04,16,17,24,40.40
2020,04,16,17,25,40.40
2020,04,16,17,26,40.40
2020,04,16,17,27,40.40
2020,04,16,17,28,40.40
2020,04,16,17,29,40.40
2020,04,16,17,30,40.30
2020,04,16,17,31,40.20
2020,04,16,17,32,40.10
2020,04,16,17,33,40.10
2020,04,16,17,34,40.10
2020,04,16,17,35,40.00
2020,04,16,17,36,40.00
2020,04,16,17,37,39.90
2020,04,16,17,38,39.80
2020,04,16,17,39,39.80
2020,04,16,17,40,39.70
2020,04,16,17,41,39.60
2020,04,16,17,42,39.50
2020,04,16,17,43,39.50
2020,04,16,17,44,39.50
2020,04,16,17,45,39.40
2020,04,16,17,46,39.40
2020,04,16,17,47,39.40
2020,04,16,17,48,39.40
2020,04,16,17,49,39.40
2020,04,16,17,50,39.30
2020,04,16,17,51,39.20
2020,04,16,17,52,39.10
2020,04,16,17,53,39.00
2020,04,16,17,54,39.00
2020,04,16,17,55,39.00
2020,04,16,17,56,39.00
2020,04,16,17,57,39.00
2020,04,16,17,58,39.00
2020,04,16,17,59,39.00
2020,04,16,18,00,39.10
2020,04,16,18,01,39.10
2020,04,16,18,02,39.10
2020,04,16,18,03,39.10
2020,04,16,18,04,39.00
2020,04,16,18,05,39.00
2020,04,16,18,06,38.90
2020,04,16,18,07,38.90
2020,04,16,18,08,38.90
2020,04,16,18,09,38.90
2020,04,16,18,10,38.90
2020,04,16,18,11,38.90
2020,04,16,18,12,38.90
2020,04,16,18,13,38.80
2020,04,16,18,14,38.80
2020,04,16,18,15,38.80
2020,04,16,18,16,38.70
2020,04,16,18,17,38.70
2020,04,16,18,18,38.60
2020,04,16,18,19,38.60
2020,04,16,18,20,38.50
2020,04,16,18,21,38.50
2020,04,16,18,22,38.40
2020,04,16,18,23,38.30
2020,04,16,18,24,38.20
2020,04,16,18,25,38.20
2020,04,16,18,26,38.10
2020,04,16,18,27,38.10
2020,04,16,18,28,38.10
2020,04,16,18,29,38.10
2020,04,16,18,30,38.10
2020,04,16,18,31,38.10
2020,04,16,18,32,38.00
2020,04,16,18,33,37.90
2020,04,16,18,34,37.70
2020,04,16,18,35,37.60
2020,04,16,18,36,37.50
2020,04,16,18,37,37.50
2020,04,16,18,38,37.40
2020,04,16,18,39,37.30
2020,04,16,18,40,37.20
2020,04,16,18,41,37.20
2020,04,16,18,42,37.20
2020,04,16,18,43,37.20
2020,04,16,18,44,37.20
2020,04,16,18,45,37.10
2020,04,16,18,46,37.10
2020,04,16,18,47,37.10
2020,04,16,18,48,37.10
2020,04,16,18,49,37.10
2020,04,16,18,50,37.10
2020,04,16,18,51,37.10
2020,04,16,18,52,37.10
2020,04,16,18,53,37.10
2020,04,16,18,54,37.10
2020,04,16,18,55,37.10
